Hourly Weather Golaszyn

Today, 17 May, Monday

Time Temperature Precipitation Wind Pressure Humidity
00:00 +8°C° 0.1 mm 2 mps 744 mmHg 92%
01:00 +8°C° 0 mm 2 mps 744 mmHg 92%
02:00 +8°C° 0 mm 2 mps 743 mmHg 93%
03:00 +8°C° 0 mm 2 mps 743 mmHg 93%
04:00 +7°C° 0 mm 2 mps 743 mmHg 93%
05:00 +9°C° 0 mm 2 mps 744 mmHg 90%
06:00 +10°C° 0 mm 2 mps 744 mmHg 87%
07:00 +12°C° 0 mm 3 mps 744 mmHg 83%
08:00 +13°C° 0 mm 3 mps 744 mmHg 76%
09:00 +14°C° 0 mm 3 mps 744 mmHg 69%
10:00 +17°C° 0 mm 3 mps 744 mmHg 62%
11:00 +17°C° 0.3 mm 3 mps 744 mmHg 63%
12:00 +17°C° 0.3 mm 4 mps 745 mmHg 64%
13:00 +17°C° 0.3 mm 4 mps 745 mmHg 64%
14:00 +17°C° 0.2 mm 4 mps 745 mmHg 67%
15:00 +16°C° 0.2 mm 3 mps 745 mmHg 71%
16:00 +16°C° 0.2 mm 3 mps 745 mmHg 74%
17:00 +14°C° 0.2 mm 3 mps 745 mmHg 77%
18:00 +13°C° 0.2 mm 3 mps 745 mmHg 80%
19:00 +12°C° 0.2 mm 3 mps 745 mmHg 83%
20:00 +12°C° 0.1 mm 4 mps 746 mmHg 85%
21:00 +11°C° 0.1 mm 4 mps 746 mmHg 88%
22:00 +11°C° 0.1 mm 4 mps 746 mmHg 91%
23:00 +10°C° 0 mm 4 mps 747 mmHg 91%

Tomorrow, 18 May, Tuesday

Time Temperature Precipitation Wind Pressure Humidity
00:00 +10°C° 0 mm 4 mps 747 mmHg 91%
01:00 +10°C° 0 mm 4 mps 747 mmHg 91%
02:00 +8°C° 0 mm 4 mps 747 mmHg 93%
03:00 +7°C° 0 mm 4 mps 747 mmHg 94%
04:00 +7°C° 0 mm 4 mps 748 mmHg 95%
05:00 +8°C° 0 mm 4 mps 748 mmHg 92%
06:00 +10°C° 0 mm 4 mps 748 mmHg 90%
07:00 +10°C° 0 mm 5 mps 748 mmHg 87%
08:00 +10°C° 0.1 mm 5 mps 748 mmHg 85%
09:00 +12°C° 0.1 mm 5 mps 749 mmHg 82%
10:00 +12°C° 0.1 mm 5 mps 749 mmHg 79%
11:00 +13°C° 0.3 mm 5 mps 749 mmHg 74%
12:00 +15°C° 0.3 mm 5 mps 749 mmHg 68%
13:00 +16°C° 0.3 mm 5 mps 749 mmHg 62%
14:00 +16°C° 0.1 mm 5 mps 749 mmHg 60%
15:00 +16°C° 0.1 mm 5 mps 749 mmHg 59%
16:00 +16°C° 0.1 mm 5 mps 749 mmHg 57%
17:00 +15°C° 0.1 mm 4 mps 749 mmHg 65%
18:00 +13°C° 0.1 mm 4 mps 749 mmHg 73%
19:00 +12°C° 0.1 mm 4 mps 750 mmHg 81%
20:00 +11°C° 0 mm 4 mps 750 mmHg 85%
21:00 +10°C° 0 mm 3 mps 750 mmHg 90%
22:00 +9°C° 0 mm 3 mps 750 mmHg 95%
23:00 +9°C° 0 mm 3 mps 751 mmHg 95%

Day after tomorrow, 19 May, Wednesday

Time Temperature Precipitation Wind Pressure Humidity
00:00 +7°C° 0 mm 4 mps 751 mmHg 95%
01:00 +7°C° 0 mm 4 mps 751 mmHg 95%
02:00 +6°C° 0 mm 4 mps 751 mmHg 95%
03:00 +7°C° 0 mm 3 mps 751 mmHg 95%
04:00 +5°C° 0 mm 3 mps 751 mmHg 96%
05:00 +7°C° 0 mm 3 mps 751 mmHg 93%
06:00 +7°C° 0 mm 4 mps 752 mmHg 91%
07:00 +8°C° 0 mm 4 mps 752 mmHg 89%
08:00 +10°C° 0.1 mm 4 mps 752 mmHg 89%
09:00 +10°C° 0.1 mm 4 mps 752 mmHg 90%
10:00 +10°C° 0.1 mm 4 mps 752 mmHg 90%
11:00 +10°C° 0.2 mm 4 mps 752 mmHg 89%
12:00 +9°C° 0.2 mm 5 mps 753 mmHg 88%
13:00 +9°C° 0.2 mm 5 mps 753 mmHg 87%
14:00 +9°C° 0 mm 5 mps 753 mmHg 83%
15:00 +10°C° 0 mm 5 mps 753 mmHg 80%
16:00 +11°C° 0 mm 4 mps 753 mmHg 76%
17:00 +10°C° 0 mm 4 mps 753 mmHg 78%
18:00 +10°C° 0 mm 3 mps 753 mmHg 79%
19:00 +10°C° 0 mm 2 mps 753 mmHg 80%
20:00 +9°C° 0 mm 2 mps 754 mmHg 82%
21:00 +8°C° 0 mm 2 mps 754 mmHg 84%
22:00 +8°C° 0 mm 1 mps 754 mmHg 86%
23:00 +7°C° 0 mm 2 mps 754 mmHg 88%

20 May, Thursday

Time Temperature Precipitation Wind Pressure Humidity
00:00 +6°C° 0 mm 2 mps 754 mmHg 90%
01:00 +6°C° 0 mm 2 mps 754 mmHg 91%
02:00 +6°C° 0 mm 2 mps 754 mmHg 93%
03:00 +5°C° 0 mm 2 mps 754 mmHg 94%
04:00 +5°C° 0 mm 2 mps 754 mmHg 95%
05:00 +7°C° 0 mm 2 mps 755 mmHg 89%
06:00 +9°C° 0 mm 3 mps 755 mmHg 84%
07:00 +10°C° 0 mm 3 mps 755 mmHg 78%
08:00 +11°C° 0.2 mm 4 mps 755 mmHg 77%
09:00 +12°C° 0.2 mm 4 mps 755 mmHg 75%
10:00 +13°C° 0.2 mm 5 mps 755 mmHg 74%
11:00 +13°C° 0.4 mm 5 mps 755 mmHg 71%
12:00 +14°C° 0.4 mm 5 mps 755 mmHg 69%
13:00 +14°C° 0.4 mm 5 mps 755 mmHg 67%
14:00 +15°C° 0.1 mm 5 mps 755 mmHg 63%
15:00 +15°C° 0.1 mm 6 mps 755 mmHg 59%
16:00 +15°C° 0.1 mm 6 mps 755 mmHg 55%
17:00 +14°C° 0.1 mm 5 mps 756 mmHg 60%
18:00 +13°C° 0.1 mm 5 mps 756 mmHg 65%
19:00 +11°C° 0.1 mm 4 mps 756 mmHg 70%
20:00 +10°C° 0 mm 4 mps 757 mmHg 75%
21:00 +8°C° 0 mm 3 mps 757 mmHg 79%
22:00 +5°C° 0 mm 3 mps 757 mmHg 84%
23:00 +5°C° 0 mm 3 mps 757 mmHg 87%

21 May, Friday

Time Temperature Precipitation Wind Pressure Humidity
00:00 +4°C° 0 mm 3 mps 757 mmHg 90%
01:00 +4°C° 0 mm 3 mps 757 mmHg 93%
02:00 +4°C° 0 mm 3 mps 757 mmHg 94%
03:00 +4°C° 0 mm 3 mps 757 mmHg 94%
04:00 +4°C° 0 mm 3 mps 757 mmHg 94%
05:00 +5°C° 0 mm 3 mps 757 mmHg 88%
06:00 +8°C° 0 mm 3 mps 757 mmHg 82%
07:00 +8°C° 0 mm 4 mps 757 mmHg 76%
08:00 +11°C° 0 mm 4 mps 756 mmHg 69%
09:00 +13°C° 0 mm 4 mps 756 mmHg 61%
10:00 +14°C° 0 mm 4 mps 755 mmHg 54%
11:00 +15°C° 0 mm 4 mps 755 mmHg 51%
12:00 +17°C° 0 mm 3 mps 754 mmHg 48%
13:00 +18°C° 0 mm 3 mps 754 mmHg 45%
14:00 +17°C° 0 mm 3 mps 754 mmHg 49%
15:00 +17°C° 0 mm 3 mps 753 mmHg 53%
16:00 +17°C° 0 mm 3 mps 753 mmHg 58%
17:00 +16°C° 0.2 mm 3 mps 753 mmHg 66%
18:00 +13°C° 0.2 mm 3 mps 752 mmHg 74%
19:00 +13°C° 0.2 mm 2 mps 752 mmHg 83%
20:00 +13°C° 0 mm 2 mps 752 mmHg 85%
21:00 +12°C° 0 mm 2 mps 751 mmHg 87%
22:00 +12°C° 0 mm 2 mps 751 mmHg 90%
23:00 +12°C° 0 mm 2 mps 751 mmHg 90%

22 May, Saturday

Time Temperature Precipitation Wind Pressure Humidity
00:00 +12°C° 0 mm 2 mps 750 mmHg 90%
01:00 +12°C° 0 mm 2 mps 749 mmHg 90%
02:00 +10°C° 0 mm 3 mps 749 mmHg 90%
03:00 +9°C° 0 mm 3 mps 749 mmHg 90%
04:00 +9°C° 0 mm 3 mps 748 mmHg 90%
05:00 +10°C° 0 mm 3 mps 748 mmHg 85%
06:00 +12°C° 0 mm 4 mps 748 mmHg 79%
07:00 +13°C° 0 mm 4 mps 748 mmHg 74%
08:00 +14°C° 0 mm 5 mps 748 mmHg 71%
09:00 +15°C° 0 mm 5 mps 748 mmHg 68%
10:00 +16°C° 0 mm 5 mps 749 mmHg 66%
11:00 +16°C° 0.1 mm 6 mps 749 mmHg 66%
12:00 +16°C° 0.1 mm 6 mps 749 mmHg 66%
13:00 +16°C° 0.1 mm 6 mps 749 mmHg 66%
14:00 +16°C° 0.1 mm 5 mps 749 mmHg 64%
15:00 +15°C° 0.1 mm 5 mps 749 mmHg 63%
16:00 +15°C° 0.1 mm 4 mps 749 mmHg 61%
17:00 +14°C° 0 mm 4 mps 749 mmHg 64%
18:00 +14°C° 0 mm 3 mps 749 mmHg 66%
19:00 +14°C° 0 mm 2 mps 749 mmHg 69%
20:00 +12°C° 0 mm 2 mps 750 mmHg 73%
21:00 +10°C° 0 mm 2 mps 750 mmHg 77%
22:00 +9°C° 0 mm 2 mps 750 mmHg 81%
23:00 +8°C° 0 mm 2 mps 750 mmHg 82%
Show more